| time (UTC) | temp C | wind direction | speed KPH | gust KPH | rain 1hr cm | rain 24hr cm | rain mn cm | humidity % | barometer mb |
| 20260906154558 | 21 | 326 | 3.2 | 9.7 | 0.00 | 0.00 | 0.00 | 79 | 1018.4 |
| 20260906153057 | 20 | 317 | 4.8 | 11.3 | 0.00 | 0.00 | 0.00 | 78 | 1018.5 |
| 20260906151557 | 20 | 294 | 0.0 | 9.7 | 0.00 | 0.00 | 0.00 | 80 | 1018.4 |
| 20260906150057 | 20 | 15 | 3.2 | 11.3 | 0.00 | 0.00 | 0.00 | 81 | 1018.3 |
| 20260906144557 | 20 | 3 | 3.2 | 12.9 | 0.00 | 0.00 | 0.00 | 81 | 1018.4 |
| 20260906143059 | 20 | 283 | 1.6 | 6.4 | 0.00 | 0.00 | 0.00 | 82 | 1018.3 |
| 20260906141602 | 20 | 30 | 3.2 | 8.0 | 0.00 | 0.00 | 0.00 | 84 | 1018.4 |
| 20260906134613 | 18 | 24 | 0.0 | 8.0 | 0.00 | 0.00 | 0.00 | 85 | 1018.2 |
| 20260906133058 | 18 | 359 | 0.0 | 4.8 | 0.00 | 0.00 | 0.00 | 88 | 1018.1 |
| 20260906131559 | 17 | 43 | 0.0 | 4.8 | 0.00 | 0.00 | 0.00 | 91 | 1018.2 |
| 20260906130145 | 17 | 25 | 1.6 | 6.4 | 0.00 | 0.00 | 0.00 | 94 | 1018.1 |
| 20260906124608 | 16 | 352 | 0.0 | 6.4 | 0.00 | 0.00 | 0.00 | 95 | 1018.0 |
| 20260906123103 | 16 | 15 | 0.0 | 0.0 | 0.00 | 0.00 | 0.00 | 96 | 1017.7 |
| 20260906121608 | 15 | 15 | 0.0 | 0.0 | 0.00 | 0.00 | 0.00 | 96 | 1017.6 |
| 20260906120107 | 14 | 15 | 0.0 | 0.0 | 0.00 | 0.00 | 0.00 | 96 | 1017.5 |
| 20260906114559 | 13 | 15 | 0.0 | 0.0 | 0.00 | 0.00 | 0.00 | 96 | 1017.4 |
| 20260906113102 | 13 | 15 | 0.0 | 0.0 | 0.00 | 0.00 | 0.00 | 96 | 1017.1 |
| 20260906111558 | 13 | 15 | 0.0 | 0.0 | 0.00 | 0.00 | 0.00 | 96 | 1016.9 |
| 20260906110058 | 13 | 15 | 0.0 | 0.0 | 0.00 | 0.00 | 0.00 | 96 | 1017.0 |
| 20260906104558 | 13 | 15 | 0.0 | 0.0 | 0.00 | 0.00 | 0.00 | 95 | 1016.9 |
| 20260906103100 | 13 | 15 | 0.0 | 0.0 | 0.00 | 0.00 | 0.00 | 95 | 1016.8 |
| 20260906101559 | 13 | 15 | 0.0 | 0.0 | 0.00 | 0.00 | 0.00 | 95 | 1016.7 |
| 20260906100059 | 14 | 15 | 0.0 | 0.0 | 0.00 | 0.00 | 0.00 | 95 | 1016.7 |
| 20260906094559 | 14 | 15 | 0.0 | 0.0 | 0.00 | 0.00 | 0.00 | 95 | 1016.5 |
| 20260906093100 | 14 | 15 | 0.0 | 0.0 | 0.00 | 0.00 | 0.00 | 95 | 1016.3 |
| 20260906091559 | 14 | 15 | 0.0 | 0.0 | 0.00 | 0.00 | 0.00 | 95 | 1016.4 |
| 20260906090059 | 14 | 15 | 0.0 | 0.0 | 0.00 | 0.00 | 0.00 | 94 | 1016.4 |
| 20260906084559 | 14 | 15 | 0.0 | 0.0 | 0.00 | 0.00 | 0.00 | 94 | 1016.3 |
| 20260906083101 | 15 | 15 | 0.0 | 0.0 | 0.00 | 0.00 | 0.00 | 94 | 1016.2 |
| 20260906081559 | 15 | 15 | 0.0 | 0.0 | 0.00 | 0.00 | 0.00 | 94 | 1015.9 |
| 20260906080059 | 15 | 15 | 0.0 | 0.0 | 0.00 | 0.00 | 0.00 | 94 | 1015.8 |
| 20260906074559 | 16 | 15 | 0.0 | 0.0 | 0.00 | 0.00 | 0.00 | 93 | 1015.8 |
| 20260906073100 | 16 | 15 | 0.0 | 0.0 | 0.00 | 0.00 | 0.00 | 94 | 1015.6 |
| 20260906071600 | 16 | 15 | 0.0 | 0.0 | 0.00 | 0.00 | 0.00 | 93 | 1015.8 |
| 20260906070100 | 16 | 15 | 0.0 | 0.0 | 0.00 | 0.00 | 0.00 | 93 | 1015.6 |
| 20260906064559 | 15 | 15 | 0.0 | 0.0 | 0.00 | 0.00 | 0.00 | 93 | 1015.7 |
| 20260906063100 | 15 | 15 | 0.0 | 0.0 | 0.00 | 0.00 | 0.00 | 92 | 1015.8 |
| 20260906061618 | 15 | 15 | 0.0 | 0.0 | 0.00 | 0.00 | 0.00 | 91 | 1015.9 |
| 20260906060109 | 16 | 15 | 0.0 | 0.0 | 0.00 | 0.00 | 0.00 | 91 | 1015.8 |
| 20260906054559 | 16 | 15 | 0.0 | 0.0 | 0.00 | 0.00 | 0.00 | 91 | 1015.6 |
| 20260906053059 | 16 | 15 | 0.0 | 0.0 | 0.00 | 0.00 | 0.00 | 92 | 1015.6 |
| 20260906051607 | 15 | 15 | 0.0 | 0.0 | 0.00 | 0.00 | 0.00 | 91 | 1015.5 |
| 20260906050100 | 15 | 15 | 0.0 | 0.0 | 0.00 | 0.00 | 0.00 | 90 | 1015.6 |
| 20260906044600 | 16 | 15 | 0.0 | 0.0 | 0.00 | 0.00 | 0.00 | 89 | 1015.5 |
| 20260906043105 | 16 | 15 | 0.0 | 3.2 | 0.00 | 0.00 | 0.00 | 88 | 1015.4 |
| 20260906041601 | 17 | 15 | 0.0 | 3.2 | 0.00 | 0.00 | 0.00 | 87 | 1015.3 |
| 20260906040100 | 17 | 15 | 1.6 | 6.4 | 0.00 | 0.00 | 0.00 | 86 | 1015.1 |
| 20260906034606 | 17 | 14 | 0.0 | 4.8 | 0.00 | 0.00 | 0.00 | 86 | 1015.1 |
| 20260906033101 | 17 | 14 | 0.0 | 3.2 | 0.00 | 0.00 | 0.00 | 85 | 1014.9 |
| 20260906031600 | 18 | 14 | 1.6 | 4.8 | 0.00 | 0.00 | 0.00 | 84 | 1015.0 |
| 20260906030101 | 18 | 14 | 0.0 | 8.0 | 0.00 | 0.00 | 0.00 | 84 | 1015.0 |
| 20260906024601 | 18 | 360 | 0.0 | 6.4 | 0.00 | 0.00 | 0.00 | 83 | 1014.9 |
| 20260906023108 | 19 | 360 | 1.6 | 11.3 | 0.00 | 0.00 | 0.00 | 84 | 1015.0 |
| 20260906021601 | 19 | 44 | 1.6 | 9.7 | 0.00 | 0.00 | 0.00 | 84 | 1015.0 |
| 20260906014607 | 19 | 1 | 0.0 | 9.7 | 0.00 | 0.00 | 0.00 | 86 | 1014.7 |
| 20260906013001 | 19 | 329 | 1.6 | 8.0 | 0.00 | 0.00 | 0.00 | 87 | 1014.5 |
| 20260906011501 | 19 | 359 | 0.0 | 11.3 | 0.00 | 0.00 | 0.00 | 86 | 1014.5 |
| 20260906010003 | 19 | 351 | 3.2 | 12.9 | 0.00 | 0.00 | 0.00 | 86 | 1014.4 |
| 20260906004501 | 19 | 354 | 3.2 | 14.5 | 0.00 | 0.00 | 0.00 | 85 | 1014.3 |
| 20260906003003 | 19 | 343 | 3.2 | 11.3 | 0.00 | 0.00 | 0.00 | 84 | 1014.5 |
| 20260906001501 | 19 | 315 | 1.6 | 12.9 | 0.00 | 0.00 | 0.00 | 83 | 1014.6 |
| 20260906000001 | 19 | 316 | 3.2 | 11.3 | 0.00 | 0.00 | 0.00 | 81 | 1014.4 |
| 20260905234500 | 19 | 337 | 3.2 | 17.7 | 0.00 | 0.00 | 0.00 | 79 | 1014.5 |
| 20260905233002 | 20 | 326 | 3.2 | 14.5 | 0.00 | 0.00 | 0.00 | 77 | 1014.5 |
| 20260905231501 | 20 | 5 | 4.8 | 16.1 | 0.00 | 0.00 | 0.00 | 75 | 1014.6 |
| 20260905230004 | 20 | 262 | 4.8 | 12.9 | 0.00 | 0.00 | 0.00 | 76 | 1014.7 |
| 20260905224503 | 20 | 326 | 4.8 | 16.1 | 0.00 | 0.00 | 0.00 | 74 | 1014.5 |
| 20260905223003 | 20 | 335 | 3.2 | 17.7 | 0.00 | 0.00 | 0.00 | 73 | 1014.4 |
| 20260905221501 | 20 | 335 | 4.8 | 16.1 | 0.00 | 0.00 | 0.00 | 70 | 1014.5 |
| 20260905220004 | 21 | 316 | 4.8 | 17.7 | 0.00 | 0.00 | 0.00 | 68 | 1014.4 |
| 20260905214502 | 21 | 360 | 3.2 | 14.5 | 0.00 | 0.00 | 0.00 | 70 | 1014.4 |
| 20260905213004 | 21 | 11 | 3.2 | 11.3 | 0.00 | 0.00 | 0.00 | 71 | 1014.3 |
| 20260905211503 | 21 | 1 | 4.8 | 17.7 | 0.00 | 0.00 | 0.00 | 72 | 1014.4 |
| 20260905210004 | 21 | 24 | 6.4 | 16.1 | 0.00 | 0.00 | 0.00 | 73 | 1014.3 |
| 20260905204502 | 22 | 333 | 3.2 | 17.7 | 0.00 | 0.00 | 0.00 | 73 | 1014.2 |
| 20260905203003 | 22 | 355 | 6.4 | 16.1 | 0.00 | 0.00 | 0.00 | 73 | 1014.1 |
| 20260905201503 | 22 | 311 | 3.2 | 12.9 | 0.00 | 0.00 | 0.00 | 75 | 1014.2 |
| 20260905200004 | 22 | 326 | 4.8 | 12.9 | 0.00 | 0.00 | 0.00 | 76 | 1014.3 |
| 20260905194503 | 22 | 311 | 6.4 | 17.7 | 0.00 | 0.00 | 0.00 | 77 | 1014.2 |
| 20260905193002 | 23 | 359 | 4.8 | 12.9 | 0.00 | 0.00 | 0.00 | 78 | 1014.3 |
| 20260905191502 | 23 | 272 | 3.2 | 16.1 | 0.00 | 0.00 | 0.00 | 78 | 1014.2 |
| 20260905190004 | 23 | 301 | 6.4 | 0.0 | 5.99 | 0.00 | 0.00 | 78 | 1014.4 |
| 20260905184507 | 23 | 282 | 3.2 | 12.9 | 0.00 | 0.00 | 0.00 | 76 | 1014.5 |
| 20260905183003 | 23 | 286 | 0.0 | 9.7 | 0.00 | 0.00 | 0.00 | 76 | 1014.6 |
| 20260905181502 | 23 | 237 | 1.6 | 8.0 | 0.00 | 0.00 | 0.00 | 78 | 1014.7 |
| 20260905180007 | 23 | 314 | 0.0 | 9.7 | 0.00 | 0.00 | 0.00 | 78 | 1014.6 |
| 20260905174503 | 23 | 323 | 4.8 | 12.9 | 0.00 | 0.00 | 0.00 | 75 | 1014.4 |
| 20260905173004 | 23 | 316 | 1.6 | 14.5 | 0.00 | 0.00 | 0.00 | 77 | 1014.4 |
| 20260905171503 | 23 | 328 | 3.2 | 14.5 | 0.00 | 0.00 | 0.00 | 76 | 1014.5 |
| 20260905170007 | 23 | 307 | 4.8 | 12.9 | 0.00 | 0.00 | 0.00 | 75 | 1014.5 |
| 20260905164503 | 23 | 335 | 3.2 | 11.3 | 0.00 | 0.00 | 0.00 | 75 | 1014.4 |
| 20260905163003 | 22 | 307 | 1.6 | 8.0 | 0.00 | 0.00 | 0.00 | 75 | 1014.5 |
| 20260905161503 | 22 | 298 | 1.6 | 11.3 | 0.00 | 0.00 | 0.00 | 77 | 1014.5 |
| 20260905160011 | 22 | 274 | 1.6 | 11.3 | 0.00 | 0.00 | 0.00 | 78 | 1014.5 |